Location: Columbia
(38.9520°N, 92.3340°W)
Time: 11:13:53
(UTC-06:00)

SJ-11-01 - Visible Passes

Search period start: 13 February 2016 00:00
Search period end: 23 February 2016 00:00
Orbit: 685 x 702 km, 98.2° (Epoch: 13 February)

Date Brightness Start Highest point End Pass type
(mag) Time Alt. Az. Time Alt. Az. Time Alt. Az.
13 Feb 6.8 20:24:33 13° N 20:24:33 13° N 20:25:00 10° N visible
14 Feb 6.5 19:26:14 12° NNE 19:26:14 12° NNE 19:26:38 10° NNE visible
15 Feb 6.5 20:06:36 15° N 20:06:36 15° N 20:07:29 10° N visible
16 Feb 6.5 19:08:17 10° NNE 19:08:17 10° NNE 19:08:27 10° NNE visible
16 Feb 6.9 20:46:58 14° NNW 20:46:58 14° NNW 20:47:35 10° NNW visible
17 Feb 6.2 19:48:39 17° NNE 19:48:39 17° NNE 19:49:51 10° N visible
18 Feb 6.4 20:29:01 18° NNW 20:29:01 18° NNW 20:30:15 10° NNW visible
19 Feb 6.1 19:30:42 16° NNE 19:30:42 16° NNE 19:32:03 10° NNE visible
19 Feb 7.1 21:09:24 13° NW 21:09:24 13° NW 21:09:55 10° NNW visible
20 Feb 6.0 20:11:05 22° N 20:11:05 22° N 20:12:46 10° N visible
21 Feb 6.2 19:12:46 14° NE 19:12:46 14° NE 19:13:58 10° NNE visible
21 Feb 6.6 20:51:27 18° NNW 20:51:27 18° NNW 20:52:46 10° NNW visible
22 Feb 5.8 19:53:08 23° NNE 19:53:08 23° NNE 19:55:10 10° N visible
22 Feb 7.4 21:31:50 10° NW 21:31:50 10° NW 21:31:51 10° NW visible
